owner,sensor,date,latitude,longitude,air_pressure(mBar),qcFlag 
TABS,ioos:station:wmo:42043:1,2011-03-01T00:00:00Z,28.9818,-94.9186,1016.67,11111222 
TABS,ioos:station:wmo:42043:1,2011-03-01T00:30:00Z,28.9818,-94.9186,1017.31,11111222 
TABS,ioos:station:wmo:42043:1,2011-03-01T01:00:00Z,28.9818,-94.9186,1017.83,11111222 
TABS,ioos:station:wmo:42043:1,2011-03-01T01:30:00Z,28.9818,-94.9186,1018.33,11111222 
TABS,ioos:station:wmo:42043:1,2011-03-01T02:00:00Z,28.9818,-94.9186,1018.89,11111222 
TABS,ioos:station:wmo:42043:1,2011-03-01T02:30:00Z,28.9818,-94.9186,1019.62,11111222 
TABS,ioos:station:wmo:42043:1,2011-03-01T03:00:00Z,28.9818,-94.9186,1020.19,11111222 
TABS,ioos:station:wmo:42043:1,2011-03-01T03:30:00Z,28.9818,-94.9186,1020.39,11111222 
TABS,ioos:station:wmo:42043:1,2011-03-01T04:00:00Z,28.9818,-94.9186,1020.8,11111222 
TABS,ioos:station:wmo:42043:1,2011-03-01T04:30:00Z,28.9818,-94.9186,1021.23,11111222 
TABS,ioos:station:wmo:42043:1,2011-03-01T05:00:00Z,28.9818,-94.9186,1021.48,11111222 
TABS,ioos:station:wmo:42043:1,2011-03-01T05:30:00Z,28.9818,-94.9186,1021.4,11111222 
TABS,ioos:station:wmo:42043:1,2011-03-01T06:00:00Z,28.9818,-94.9186,1021.76,11111222 
TABS,ioos:station:wmo:42043:1,2011-03-01T06:30:00Z,28.9818,-94.9186,1021.71,11111222 
TABS,ioos:station:wmo:42043:1,2011-03-01T07:00:00Z,28.9818,-94.9186,1021.78,11111222 
TABS,ioos:station:wmo:42043:1,2011-03-01T07:30:00Z,28.9818,-94.9186,1021.58,11111222 
TABS,ioos:station:wmo:42043:1,2011-03-01T08:00:00Z,28.9818,-94.9186,1021.73,11111222 
TABS,ioos:station:wmo:42043:1,2011-03-01T08:30:00Z,28.9818,-94.9186,1021.77,11111222 
TABS,ioos:station:wmo:42043:1,2011-03-01T09:00:00Z,28.9818,-94.9186,1021.88,11111222 
TABS,ioos:station:wmo:42043:1,2011-03-01T09:30:00Z,28.9818,-94.9186,1021.85,11111222 
TABS,ioos:station:wmo:42043:1,2011-03-01T10:00:00Z,28.9818,-94.9186,1021.71,11111222 
TABS,ioos:station:wmo:42043:1,2011-03-01T10:30:00Z,28.9818,-94.9186,1022.05,11111222 
TABS,ioos:station:wmo:42043:1,2011-03-01T11:00:00Z,28.9818,-94.9186,1022.12,11111222 
TABS,ioos:station:wmo:42043:1,2011-03-01T11:30:00Z,28.9818,-94.9186,1022.63,11111222 
TABS,ioos:station:wmo:42043:1,2011-03-01T12:00:00Z,28.9818,-94.9186,1022.72,11111222 
TABS,ioos:station:wmo:42043:1,2011-03-01T12:30:00Z,28.9818,-94.9186,1023.26,11111222 
TABS,ioos:station:wmo:42043:1,2011-03-01T13:00:00Z,28.9818,-94.9186,1023.71,11111222 
TABS,ioos:station:wmo:42043:1,2011-03-01T13:30:00Z,28.9818,-94.9186,1023.91,11111222 
TABS,ioos:station:wmo:42043:1,2011-03-01T14:00:00Z,28.9818,-94.9186,1024.2,11111222 
TABS,ioos:station:wmo:42043:1,2011-03-01T14:30:00Z,28.9818,-94.9186,1024.61,11111222 
TABS,ioos:station:wmo:42043:1,2011-03-01T15:00:00Z,28.9818,-94.9186,1024.73,11111222 
TABS,ioos:station:wmo:42043:1,2011-03-01T15:30:00Z,28.9818,-94.9186,1024.88,11111222 
TABS,ioos:station:wmo:42043:1,2011-03-01T16:00:00Z,28.9818,-94.9186,1025.14,11111222 
TABS,ioos:station:wmo:42043:1,2011-03-01T16:30:00Z,28.9818,-94.9186,1025.2,11111222 
TABS,ioos:station:wmo:42043:1,2011-03-01T17:00:00Z,28.9818,-94.9186,1025.01,11111222 
TABS,ioos:station:wmo:42043:1,2011-03-01T17:30:00Z,28.9818,-94.9186,1024.85,11111222 
TABS,ioos:station:wmo:42043:1,2011-03-01T18:00:00Z,28.9818,-94.9186,1024.51,11111222 
TABS,ioos:station:wmo:42043:1,2011-03-01T18:30:00Z,28.9818,-94.9186,1024.13,11111222 
TABS,ioos:station:wmo:42043:1,2011-03-01T19:00:00Z,28.9818,-94.9186,1023.7,11111222 
TABS,ioos:station:wmo:42043:1,2011-03-01T19:30:00Z,28.9818,-94.9186,1023.12,11111222 
TABS,ioos:station:wmo:42043:1,2011-03-01T20:00:00Z,28.9818,-94.9186,1022.6,11111222 
TABS,ioos:station:wmo:42043:1,2011-03-01T20:30:00Z,28.9818,-94.9186,1022.19,11111222 
TABS,ioos:station:wmo:42043:1,2011-03-01T21:00:00Z,28.9818,-94.9186,1021.91,11111222 
TABS,ioos:station:wmo:42043:1,2011-03-01T21:30:00Z,28.9818,-94.9186,1021.74,11111222 
TABS,ioos:station:wmo:42043:1,2011-03-01T22:00:00Z,28.9818,-94.9186,1021.4,11111222 
TABS,ioos:station:wmo:42043:1,2011-03-01T22:30:00Z,28.9818,-94.9186,1021.18,11111222 
TABS,ioos:station:wmo:42043:1,2011-03-01T23:00:00Z,28.9818,-94.9186,1021.21,11111222 
TABS,ioos:station:wmo:42043:1,2011-03-01T23:30:00Z,28.9818,-94.9186,1021.24,11111222 
TABS,ioos:station:wmo:42043:1,2011-03-02T00:00:00Z,28.9818,-94.9186,1021.4,11111222 
TABS,ioos:station:wmo:42043:1,2011-03-02T00:30:00Z,28.9818,-94.9186,1021.48,11111222 
TABS,ioos:station:wmo:42043:1,2011-03-02T01:00:00Z,28.9818,-94.9186,1021.21,11111222 
TABS,ioos:station:wmo:42043:1,2011-03-02T01:30:00Z,28.9818,-94.9186,1021.35,11111222 
TABS,ioos:station:wmo:42043:1,2011-03-02T02:00:00Z,28.9818,-94.9186,1021.55,11111222 
TABS,ioos:station:wmo:42043:1,2011-03-02T02:30:00Z,28.9818,-94.9186,1021.5,11111222 
TABS,ioos:station:wmo:42043:1,2011-03-02T03:00:00Z,28.9818,-94.9186,1021.44,11111222 
TABS,ioos:station:wmo:42043:1,2011-03-02T03:30:00Z,28.9818,-94.9186,1021.39,11111222 
TABS,ioos:station:wmo:42043:1,2011-03-02T04:00:00Z,28.9818,-94.9186,1021.34,11111222 
TABS,ioos:station:wmo:42043:1,2011-03-02T04:30:00Z,28.9818,-94.9186,1021.12,11111222 
TABS,ioos:station:wmo:42043:1,2011-03-02T05:00:00Z,28.9818,-94.9186,1021.08,11111222 
TABS,ioos:station:wmo:42043:1,2011-03-02T05:30:00Z,28.9818,-94.9186,1020.98,11111222 
TABS,ioos:station:wmo:42043:1,2011-03-02T06:00:00Z,28.9818,-94.9186,1020.92,11111222 
TABS,ioos:station:wmo:42043:1,2011-03-02T06:30:00Z,28.9818,-94.9186,1020.97,11111222 
TABS,ioos:station:wmo:42043:1,2011-03-02T07:00:00Z,28.9818,-94.9186,1020.89,11111222 
TABS,ioos:station:wmo:42043:1,2011-03-02T07:30:00Z,28.9818,-94.9186,1020.7,11111222 
TABS,ioos:station:wmo:42043:1,2011-03-02T08:00:00Z,28.9818,-94.9186,1020.65,11111222 
TABS,ioos:station:wmo:42043:1,2011-03-02T08:30:00Z,28.9818,-94.9186,1020.64,11111222 
TABS,ioos:station:wmo:42043:1,2011-03-02T09:00:00Z,28.9818,-94.9186,1020.4,11111222 
TABS,ioos:station:wmo:42043:1,2011-03-02T09:30:00Z,28.9818,-94.9186,1020.22,11111222 
TABS,ioos:station:wmo:42043:1,2011-03-02T10:00:00Z,28.9818,-94.9186,1020.22,11111222 
TABS,ioos:station:wmo:42043:1,2011-03-02T10:30:00Z,28.9818,-94.9186,1020.34,11111222 
TABS,ioos:station:wmo:42043:1,2011-03-02T11:00:00Z,28.9818,-94.9186,1020.62,11111222 
TABS,ioos:station:wmo:42043:1,2011-03-02T11:30:00Z,28.9818,-94.9186,1020.59,11111222 
TABS,ioos:station:wmo:42043:1,2011-03-02T12:00:00Z,28.9818,-94.9186,1020.61,11111222 
TABS,ioos:station:wmo:42043:1,2011-03-02T12:30:00Z,28.9818,-94.9186,1020.77,11111222 
TABS,ioos:station:wmo:42043:1,2011-03-02T13:00:00Z,28.9818,-94.9186,1021.05,11111222 
TABS,ioos:station:wmo:42043:1,2011-03-02T13:30:00Z,28.9818,-94.9186,1021.45,11111222 
TABS,ioos:station:wmo:42043:1,2011-03-02T14:00:00Z,28.9818,-94.9186,1022.02,11111222 
TABS,ioos:station:wmo:42043:1,2011-03-02T14:30:00Z,28.9818,-94.9186,1022.23,11111222 
TABS,ioos:station:wmo:42043:1,2011-03-02T15:00:00Z,28.9818,-94.9186,1022.39,11111222 
TABS,ioos:station:wmo:42043:1,2011-03-02T15:30:00Z,28.9818,-94.9186,1022.44,11111222 
TABS,ioos:station:wmo:42043:1,2011-03-02T16:00:00Z,28.9818,-94.9186,1022.39,11111222 
TABS,ioos:station:wmo:42043:1,2011-03-02T16:30:00Z,28.9818,-94.9186,1022.48,11111222 
TABS,ioos:station:wmo:42043:1,2011-03-02T17:00:00Z,28.9818,-94.9186,1022.62,11111222 
TABS,ioos:station:wmo:42043:1,2011-03-02T17:30:00Z,28.9818,-94.9186,1022.53,11111222 
TABS,ioos:station:wmo:42043:1,2011-03-02T18:00:00Z,28.9818,-94.9186,1021.89,11111222 
TABS,ioos:station:wmo:42043:1,2011-03-02T18:30:00Z,28.9818,-94.9186,1021.5,11111222 
TABS,ioos:station:wmo:42043:1,2011-03-02T19:00:00Z,28.9818,-94.9186,1021.21,11111222 
TABS,ioos:station:wmo:42043:1,2011-03-02T19:30:00Z,28.9818,-94.9186,1020.37,11111222 
TABS,ioos:station:wmo:42043:1,2011-03-02T20:00:00Z,28.9818,-94.9186,1019.92,11111222 
TABS,ioos:station:wmo:42043:1,2011-03-02T20:30:00Z,28.9818,-94.9186,1019.3,11111222 
TABS,ioos:station:wmo:42043:1,2011-03-02T21:00:00Z,28.9818,-94.9186,1019.16,11111222 
TABS,ioos:station:wmo:42043:1,2011-03-02T21:30:00Z,28.9818,-94.9186,1018.65,11111222 
TABS,ioos:station:wmo:42043:1,2011-03-02T22:00:00Z,28.9818,-94.9186,1018.6,11111222 
TABS,ioos:station:wmo:42043:1,2011-03-02T22:30:00Z,28.9818,-94.9186,1018.37,11111222 
TABS,ioos:station:wmo:42043:1,2011-03-02T23:00:00Z,28.9818,-94.9186,1018.45,11111222 
TABS,ioos:station:wmo:42043:1,2011-03-02T23:30:00Z,28.9818,-94.9186,1018.6,11111222 
TABS,ioos:station:wmo:42043:1,2011-03-03T00:00:00Z,28.9818,-94.9186,1018.82,11111222 
TABS,ioos:station:wmo:42043:1,2011-03-03T00:30:00Z,28.9818,-94.9186,1019.02,11111222 
TABS,ioos:station:wmo:42043:1,2011-03-03T01:00:00Z,28.9818,-94.9186,1018.81,11111222 
TABS,ioos:station:wmo:42043:1,2011-03-03T01:30:00Z,28.9818,-94.9186,1018.7,11111222 
TABS,ioos:station:wmo:42043:1,2011-03-03T02:00:00Z,28.9818,-94.9186,1018.92,11111222 
TABS,ioos:station:wmo:42043:1,2011-03-03T02:30:00Z,28.9818,-94.9186,1018.96,11111222 
TABS,ioos:station:wmo:42043:1,2011-03-03T03:00:00Z,28.9818,-94.9186,1019.21,11111222 
TABS,ioos:station:wmo:42043:1,2011-03-03T03:30:00Z,28.9818,-94.9186,1019.58,11111222 
TABS,ioos:station:wmo:42043:1,2011-03-03T04:00:00Z,28.9818,-94.9186,1019.39,11111222 
TABS,ioos:station:wmo:42043:1,2011-03-03T04:30:00Z,28.9818,-94.9186,1019.26,11111222 
TABS,ioos:station:wmo:42043:1,2011-03-03T05:00:00Z,28.9818,-94.9186,1019.08,11111222 
TABS,ioos:station:wmo:42043:1,2011-03-03T05:30:00Z,28.9818,-94.9186,1018.95,11111222 
TABS,ioos:station:wmo:42043:1,2011-03-03T06:00:00Z,28.9818,-94.9186,1018.68,11111222 
TABS,ioos:station:wmo:42043:1,2011-03-03T06:30:00Z,28.9818,-94.9186,1018.42,11111222 
TABS,ioos:station:wmo:42043:1,2011-03-03T07:00:00Z,28.9818,-94.9186,1018.44,11111222 
TABS,ioos:station:wmo:42043:1,2011-03-03T07:30:00Z,28.9818,-94.9186,1018.52,11111222 
TABS,ioos:station:wmo:42043:1,2011-03-03T08:00:00Z,28.9818,-94.9186,1018.25,11111222 
TABS,ioos:station:wmo:42043:1,2011-03-03T08:30:00Z,28.9818,-94.9186,1018.17,11111222 
TABS,ioos:station:wmo:42043:1,2011-03-03T09:00:00Z,28.9818,-94.9186,1017.75,11111222 
TABS,ioos:station:wmo:42043:1,2011-03-03T09:30:00Z,28.9818,-94.9186,1017.38,11111222 
TABS,ioos:station:wmo:42043:1,2011-03-03T10:00:00Z,28.9818,-94.9186,1017.06,11111222 
TABS,ioos:station:wmo:42043:1,2011-03-03T10:30:00Z,28.9818,-94.9186,1017.28,11111222 
TABS,ioos:station:wmo:42043:1,2011-03-03T11:00:00Z,28.9818,-94.9186,1017.52,11111222 
TABS,ioos:station:wmo:42043:1,2011-03-03T11:30:00Z,28.9818,-94.9186,1017.8,11111222 
TABS,ioos:station:wmo:42043:1,2011-03-03T12:00:00Z,28.9818,-94.9186,1018.0,11111222 
TABS,ioos:station:wmo:42043:1,2011-03-03T12:30:00Z,28.9818,-94.9186,1018.17,11111222 
TABS,ioos:station:wmo:42043:1,2011-03-03T13:00:00Z,28.9818,-94.9186,1018.1,11111222 
TABS,ioos:station:wmo:42043:1,2011-03-03T13:30:00Z,28.9818,-94.9186,1018.46,11111222 
TABS,ioos:station:wmo:42043:1,2011-03-03T14:00:00Z,28.9818,-94.9186,1018.7,11111222 
TABS,ioos:station:wmo:42043:1,2011-03-03T14:30:00Z,28.9818,-94.9186,1018.73,11111222 
TABS,ioos:station:wmo:42043:1,2011-03-03T15:00:00Z,28.9818,-94.9186,1018.77,11111222 
TABS,ioos:station:wmo:42043:1,2011-03-03T15:30:00Z,28.9818,-94.9186,1018.81,11111222 
TABS,ioos:station:wmo:42043:1,2011-03-03T16:00:00Z,28.9818,-94.9186,1018.79,11111222 
TABS,ioos:station:wmo:42043:1,2011-03-03T16:30:00Z,28.9818,-94.9186,1018.6,11111222 
TABS,ioos:station:wmo:42043:1,2011-03-03T17:00:00Z,28.9818,-94.9186,1018.36,11111222 
TABS,ioos:station:wmo:42043:1,2011-03-03T17:30:00Z,28.9818,-94.9186,1018.43,11111222 
TABS,ioos:station:wmo:42043:1,2011-03-03T18:00:00Z,28.9818,-94.9186,1018.0,11111222 
TABS,ioos:station:wmo:42043:1,2011-03-03T18:30:00Z,28.9818,-94.9186,1017.68,11111222 
TABS,ioos:station:wmo:42043:1,2011-03-03T19:00:00Z,28.9818,-94.9186,1017.18,11111222 
TABS,ioos:station:wmo:42043:1,2011-03-03T19:30:00Z,28.9818,-94.9186,1016.72,11111222 
TABS,ioos:station:wmo:42043:1,2011-03-03T20:00:00Z,28.9818,-94.9186,1016.44,11111222 
TABS,ioos:station:wmo:42043:1,2011-03-03T20:30:00Z,28.9818,-94.9186,1016.17,11111222 
TABS,ioos:station:wmo:42043:1,2011-03-03T21:00:00Z,28.9818,-94.9186,1015.89,11111222 
TABS,ioos:station:wmo:42043:1,2011-03-03T21:30:00Z,28.9818,-94.9186,1015.72,11111222 
TABS,ioos:station:wmo:42043:1,2011-03-03T22:00:00Z,28.9818,-94.9186,1015.66,11111222 
TABS,ioos:station:wmo:42043:1,2011-03-03T22:30:00Z,28.9818,-94.9186,1015.58,11111222 
TABS,ioos:station:wmo:42043:1,2011-03-03T23:00:00Z,28.9818,-94.9186,1015.52,11111222 
TABS,ioos:station:wmo:42043:1,2011-03-03T23:30:00Z,28.9818,-94.9186,1015.2,11111222 
TABS,ioos:station:wmo:42043:1,2011-03-04T00:00:00Z,28.9818,-94.9186,1014.98,11111222 
TABS,ioos:station:wmo:42043:1,2011-03-04T00:30:00Z,28.9818,-94.9186,1014.9,11111222 
TABS,ioos:station:wmo:42043:1,2011-03-04T01:00:00Z,28.9818,-94.9186,1014.99,11111222 
TABS,ioos:station:wmo:42043:1,2011-03-04T01:30:00Z,28.9818,-94.9186,1015.36,11111222 
TABS,ioos:station:wmo:42043:1,2011-03-04T02:00:00Z,28.9818,-94.9186,1015.53,11111222 
TABS,ioos:station:wmo:42043:1,2011-03-04T02:30:00Z,28.9818,-94.9186,1015.64,11111222 
TABS,ioos:station:wmo:42043:1,2011-03-04T03:00:00Z,28.9818,-94.9186,1015.39,11111222 
TABS,ioos:station:wmo:42043:1,2011-03-04T03:30:00Z,28.9818,-94.9186,1015.44,11111222 
TABS,ioos:station:wmo:42043:1,2011-03-04T04:00:00Z,28.9818,-94.9186,1015.23,11111222 
TABS,ioos:station:wmo:42043:1,2011-03-04T04:30:00Z,28.9818,-94.9186,1015.08,11111222 
TABS,ioos:station:wmo:42043:1,2011-03-04T05:00:00Z,28.9818,-94.9186,1015.02,11111222 
TABS,ioos:station:wmo:42043:1,2011-03-04T05:30:00Z,28.9818,-94.9186,1014.78,11111222 
TABS,ioos:station:wmo:42043:1,2011-03-04T06:00:00Z,28.9818,-94.9186,1014.42,11111222 
TABS,ioos:station:wmo:42043:1,2011-03-04T06:30:00Z,28.9818,-94.9186,1014.04,11111222 
TABS,ioos:station:wmo:42043:1,2011-03-04T07:00:00Z,28.9818,-94.9186,1013.71,11111222 
TABS,ioos:station:wmo:42043:1,2011-03-04T07:30:00Z,28.9818,-94.9186,1013.17,11111222 
TABS,ioos:station:wmo:42043:1,2011-03-04T08:00:00Z,28.9818,-94.9186,1012.72,11111222 
TABS,ioos:station:wmo:42043:1,2011-03-04T08:30:00Z,28.9818,-94.9186,1012.63,11111222 
TABS,ioos:station:wmo:42043:1,2011-03-04T09:00:00Z,28.9818,-94.9186,1012.33,11111222 
TABS,ioos:station:wmo:42043:1,2011-03-04T09:30:00Z,28.9818,-94.9186,1012.33,11111222 
TABS,ioos:station:wmo:42043:1,2011-03-04T10:00:00Z,28.9818,-94.9186,1012.32,11111222 
TABS,ioos:station:wmo:42043:1,2011-03-04T10:30:00Z,28.9818,-94.9186,1012.38,11111222 
TABS,ioos:station:wmo:42043:1,2011-03-04T11:00:00Z,28.9818,-94.9186,1012.39,11111222 
TABS,ioos:station:wmo:42043:1,2011-03-04T11:30:00Z,28.9818,-94.9186,1012.42,11111222 
TABS,ioos:station:wmo:42043:1,2011-03-04T12:00:00Z,28.9818,-94.9186,1012.57,11111222 
TABS,ioos:station:wmo:42043:1,2011-03-04T12:30:00Z,28.9818,-94.9186,1012.66,11111222 
TABS,ioos:station:wmo:42043:1,2011-03-04T13:00:00Z,28.9818,-94.9186,1013.0,11111222 
TABS,ioos:station:wmo:42043:1,2011-03-04T13:30:00Z,28.9818,-94.9186,1013.16,11111222 
TABS,ioos:station:wmo:42043:1,2011-03-04T14:00:00Z,28.9818,-94.9186,1013.63,11111222 
TABS,ioos:station:wmo:42043:1,2011-03-04T14:30:00Z,28.9818,-94.9186,1013.88,11111222 
TABS,ioos:station:wmo:42043:1,2011-03-04T15:00:00Z,28.9818,-94.9186,1014.16,11111222 
TABS,ioos:station:wmo:42043:1,2011-03-04T15:30:00Z,28.9818,-94.9186,1014.48,11111222 
TABS,ioos:station:wmo:42043:1,2011-03-04T16:00:00Z,28.9818,-94.9186,1014.67,11111222 
TABS,ioos:station:wmo:42043:1,2011-03-04T16:30:00Z,28.9818,-94.9186,1014.81,11111222 
TABS,ioos:station:wmo:42043:1,2011-03-04T17:00:00Z,28.9818,-94.9186,1014.72,11111222 
TABS,ioos:station:wmo:42043:1,2011-03-04T17:30:00Z,28.9818,-94.9186,1014.6,11111222 
TABS,ioos:station:wmo:42043:1,2011-03-04T18:00:00Z,28.9818,-94.9186,1014.46,11111222 
TABS,ioos:station:wmo:42043:1,2011-03-04T18:30:00Z,28.9818,-94.9186,1014.07,11111222 
TABS,ioos:station:wmo:42043:1,2011-03-04T19:00:00Z,28.9818,-94.9186,1013.57,11111222 
TABS,ioos:station:wmo:42043:1,2011-03-04T19:30:00Z,28.9818,-94.9186,1013.37,11111222 
TABS,ioos:station:wmo:42043:1,2011-03-04T20:00:00Z,28.9818,-94.9186,1013.05,11111222 
TABS,ioos:station:wmo:42043:1,2011-03-04T20:30:00Z,28.9818,-94.9186,1012.85,11111222 
TABS,ioos:station:wmo:42043:1,2011-03-04T21:00:00Z,28.9818,-94.9186,1012.78,11111222 
TABS,ioos:station:wmo:42043:1,2011-03-04T21:30:00Z,28.9818,-94.9186,1012.55,11111222 
TABS,ioos:station:wmo:42043:1,2011-03-04T22:00:00Z,28.9818,-94.9186,1012.08,11111222 
TABS,ioos:station:wmo:42043:1,2011-03-04T22:30:00Z,28.9818,-94.9186,1012.42,11111222 
TABS,ioos:station:wmo:42043:1,2011-03-04T23:00:00Z,28.9818,-94.9186,1012.35,11111222 
TABS,ioos:station:wmo:42043:1,2011-03-04T23:30:00Z,28.9818,-94.9186,1011.85,11111222 
TABS,ioos:station:wmo:42043:1,2011-03-05T00:00:00Z,28.9818,-94.9186,1011.85,11111222 
TABS,ioos:station:wmo:42043:1,2011-03-05T00:30:00Z,28.9818,-94.9186,1012.41,11111222 
TABS,ioos:station:wmo:42043:1,2011-03-05T01:00:00Z,28.9818,-94.9186,1012.71,11111222 
TABS,ioos:station:wmo:42043:1,2011-03-05T01:30:00Z,28.9818,-94.9186,1012.64,11111222 
TABS,ioos:station:wmo:42043:1,2011-03-05T02:00:00Z,28.9818,-94.9186,1013.17,11111222 
TABS,ioos:station:wmo:42043:1,2011-03-05T02:30:00Z,28.9818,-94.9186,1013.26,11111222 
TABS,ioos:station:wmo:42043:1,2011-03-05T03:00:00Z,28.9818,-94.9186,1013.56,11111222 
TABS,ioos:station:wmo:42043:1,2011-03-05T03:30:00Z,28.9818,-94.9186,1013.64,11111222 
TABS,ioos:station:wmo:42043:1,2011-03-05T04:00:00Z,28.9818,-94.9186,1013.83,11111222 
TABS,ioos:station:wmo:42043:1,2011-03-05T04:30:00Z,28.9818,-94.9186,1013.91,11111222 
TABS,ioos:station:wmo:42043:1,2011-03-05T05:00:00Z,28.9818,-94.9186,1014.07,11111222 
TABS,ioos:station:wmo:42043:1,2011-03-05T05:30:00Z,28.9818,-94.9186,1013.6,11111222 
TABS,ioos:station:wmo:42043:1,2011-03-05T06:00:00Z,28.9818,-94.9186,1013.18,11111222 
TABS,ioos:station:wmo:42043:1,2011-03-05T06:30:00Z,28.9818,-94.9186,1013.17,11111222 
TABS,ioos:station:wmo:42043:1,2011-03-05T07:00:00Z,28.9818,-94.9186,1012.78,11111222 
TABS,ioos:station:wmo:42043:1,2011-03-05T07:30:00Z,28.9818,-94.9186,1012.74,11111222 
TABS,ioos:station:wmo:42043:1,2011-03-05T08:00:00Z,28.9818,-94.9186,1012.51,11111222 
TABS,ioos:station:wmo:42043:1,2011-03-05T08:30:00Z,28.9818,-94.9186,1012.34,11111222 
TABS,ioos:station:wmo:42043:1,2011-03-05T09:00:00Z,28.9818,-94.9186,1012.18,11111222 
TABS,ioos:station:wmo:42043:1,2011-03-05T09:30:00Z,28.9818,-94.9186,1011.53,11111222 
TABS,ioos:station:wmo:42043:1,2011-03-05T10:00:00Z,28.9818,-94.9186,1011.43,11111222 
TABS,ioos:station:wmo:42043:1,2011-03-05T10:30:00Z,28.9818,-94.9186,1011.68,11111222 
TABS,ioos:station:wmo:42043:1,2011-03-05T11:00:00Z,28.9818,-94.9186,1011.98,11111222 
TABS,ioos:station:wmo:42043:1,2011-03-05T11:30:00Z,28.9818,-94.9186,1011.45,11111222 
TABS,ioos:station:wmo:42043:1,2011-03-05T12:00:00Z,28.9818,-94.9186,1011.55,11111222 
TABS,ioos:station:wmo:42043:1,2011-03-05T12:30:00Z,28.9818,-94.9186,1012.49,11111222 
TABS,ioos:station:wmo:42043:1,2011-03-05T13:00:00Z,28.9818,-94.9186,1012.57,11111222 
TABS,ioos:station:wmo:42043:1,2011-03-05T13:30:00Z,28.9818,-94.9186,1013.24,11111222 
TABS,ioos:station:wmo:42043:1,2011-03-05T14:00:00Z,28.9818,-94.9186,1013.34,11111222 
TABS,ioos:station:wmo:42043:1,2011-03-05T14:30:00Z,28.9818,-94.9186,1013.63,11111222 
TABS,ioos:station:wmo:42043:1,2011-03-05T15:00:00Z,28.9818,-94.9186,1014.23,11111222 
TABS,ioos:station:wmo:42043:1,2011-03-05T15:30:00Z,28.9818,-94.9186,1014.81,11111222 
TABS,ioos:station:wmo:42043:1,2011-03-05T16:00:00Z,28.9818,-94.9186,1015.2,11111222 
TABS,ioos:station:wmo:42043:1,2011-03-05T16:30:00Z,28.9818,-94.9186,1016.29,11111222 
TABS,ioos:station:wmo:42043:1,2011-03-05T17:00:00Z,28.9818,-94.9186,1015.96,11111222 
TABS,ioos:station:wmo:42043:1,2011-03-05T17:30:00Z,28.9818,-94.9186,1017.65,11111222 
TABS,ioos:station:wmo:42043:1,2011-03-05T18:00:00Z,28.9818,-94.9186,1017.76,11111222 
TABS,ioos:station:wmo:42043:1,2011-03-05T18:30:00Z,28.9818,-94.9186,1017.79,11111222 
TABS,ioos:station:wmo:42043:1,2011-03-05T19:00:00Z,28.9818,-94.9186,1017.35,11111222 
TABS,ioos:station:wmo:42043:1,2011-03-05T19:30:00Z,28.9818,-94.9186,1017.31,11111222 
TABS,ioos:station:wmo:42043:1,2011-03-05T20:00:00Z,28.9818,-94.9186,1017.07,11111222 
TABS,ioos:station:wmo:42043:1,2011-03-05T20:30:00Z,28.9818,-94.9186,1017.19,11111222 
TABS,ioos:station:wmo:42043:1,2011-03-05T21:00:00Z,28.9818,-94.9186,1017.3,11111222 
TABS,ioos:station:wmo:42043:1,2011-03-05T21:30:00Z,28.9818,-94.9186,1017.4,11111222 
TABS,ioos:station:wmo:42043:1,2011-03-05T22:00:00Z,28.9818,-94.9186,1017.61,11111222 
TABS,ioos:station:wmo:42043:1,2011-03-05T22:30:00Z,28.9818,-94.9186,1017.14,11111222 
TABS,ioos:station:wmo:42043:1,2011-03-05T23:00:00Z,28.9818,-94.9186,1017.24,11111222 
TABS,ioos:station:wmo:42043:1,2011-03-05T23:30:00Z,28.9818,-94.9186,1017.56,11111222 
TABS,ioos:station:wmo:42043:1,2011-03-06T00:00:00Z,28.9818,-94.9186,1018.32,11111222 
TABS,ioos:station:wmo:42043:1,2011-03-06T00:30:00Z,28.9818,-94.9186,1018.93,11111222 
TABS,ioos:station:wmo:42043:1,2011-03-06T01:00:00Z,28.9818,-94.9186,1019.7,11111222 
TABS,ioos:station:wmo:42043:1,2011-03-06T01:30:00Z,28.9818,-94.9186,1020.36,11111222 
TABS,ioos:station:wmo:42043:1,2011-03-06T02:00:00Z,28.9818,-94.9186,1021.04,11111222 
TABS,ioos:station:wmo:42043:1,2011-03-06T02:30:00Z,28.9818,-94.9186,1021.56,11111222 
TABS,ioos:station:wmo:42043:1,2011-03-06T03:00:00Z,28.9818,-94.9186,1022.21,11111222 
TABS,ioos:station:wmo:42043:1,2011-03-06T03:30:00Z,28.9818,-94.9186,1022.43,11111222 
TABS,ioos:station:wmo:42043:1,2011-03-06T04:00:00Z,28.9818,-94.9186,1022.78,11111222 
TABS,ioos:station:wmo:42043:1,2011-03-06T04:30:00Z,28.9818,-94.9186,1023.14,11111222 
TABS,ioos:station:wmo:42043:1,2011-03-06T05:00:00Z,28.9818,-94.9186,1022.76,11111222 
TABS,ioos:station:wmo:42043:1,2011-03-06T05:30:00Z,28.9818,-94.9186,1022.58,11111222 
TABS,ioos:station:wmo:42043:1,2011-03-06T06:00:00Z,28.9818,-94.9186,1022.57,11111222 
TABS,ioos:station:wmo:42043:1,2011-03-06T06:30:00Z,28.9818,-94.9186,1022.63,11111222 
TABS,ioos:station:wmo:42043:1,2011-03-06T07:00:00Z,28.9818,-94.9186,1022.5,11111222 
TABS,ioos:station:wmo:42043:1,2011-03-06T07:30:00Z,28.9818,-94.9186,1022.14,11111222 
TABS,ioos:station:wmo:42043:1,2011-03-06T08:00:00Z,28.9818,-94.9186,1021.87,11111222 
TABS,ioos:station:wmo:42043:1,2011-03-06T08:30:00Z,28.9818,-94.9186,1021.49,11111222 
TABS,ioos:station:wmo:42043:1,2011-03-06T09:00:00Z,28.9818,-94.9186,1021.65,11111222 
TABS,ioos:station:wmo:42043:1,2011-03-06T09:30:00Z,28.9818,-94.9186,1021.67,11111222 
TABS,ioos:station:wmo:42043:1,2011-03-06T10:00:00Z,28.9818,-94.9186,1021.44,11111222 
TABS,ioos:station:wmo:42043:1,2011-03-06T10:30:00Z,28.9818,-94.9186,1021.52,11111222 
TABS,ioos:station:wmo:42043:1,2011-03-06T11:00:00Z,28.9818,-94.9186,1021.86,11111222 
TABS,ioos:station:wmo:42043:1,2011-03-06T11:30:00Z,28.9818,-94.9186,1022.32,11111222 
TABS,ioos:station:wmo:42043:1,2011-03-06T12:00:00Z,28.9818,-94.9186,1022.71,11111222 
TABS,ioos:station:wmo:42043:1,2011-03-06T12:30:00Z,28.9818,-94.9186,1022.6,11111222 
TABS,ioos:station:wmo:42043:1,2011-03-06T13:00:00Z,28.9818,-94.9186,1022.57,11111222 
TABS,ioos:station:wmo:42043:1,2011-03-06T13:30:00Z,28.9818,-94.9186,1022.85,11111222 
TABS,ioos:station:wmo:42043:1,2011-03-06T14:00:00Z,28.9818,-94.9186,1023.25,11111222 
TABS,ioos:station:wmo:42043:1,2011-03-06T14:30:00Z,28.9818,-94.9186,1023.58,11111222 
TABS,ioos:station:wmo:42043:1,2011-03-06T15:00:00Z,28.9818,-94.9186,1023.9,11111222 
TABS,ioos:station:wmo:42043:1,2011-03-06T15:30:00Z,28.9818,-94.9186,1023.73,11111222 
TABS,ioos:station:wmo:42043:1,2011-03-06T16:00:00Z,28.9818,-94.9186,1023.55,11111222 
TABS,ioos:station:wmo:42043:1,2011-03-06T16:30:00Z,28.9818,-94.9186,1023.83,11111222 
TABS,ioos:station:wmo:42043:1,2011-03-06T17:00:00Z,28.9818,-94.9186,1023.5,11111222 
TABS,ioos:station:wmo:42043:1,2011-03-06T17:30:00Z,28.9818,-94.9186,1023.5,11111222 
TABS,ioos:station:wmo:42043:1,2011-03-06T18:00:00Z,28.9818,-94.9186,1023.33,11111222 
TABS,ioos:station:wmo:42043:1,2011-03-06T18:30:00Z,28.9818,-94.9186,1022.69,11111222 